| time (UTC) | temp F | wind direction | speed knots | gust knots | rain 1hr in | rain 24hr in | rain mn in | humidity % | barometer mb |
| 20260510071813 | 49 | 101 | 0.0 | 0.0 | 0.00 | 0.00 | 0.00 | 99 | 1013.2 |
| 20260510071309 | 49 | 101 | 0.0 | 0.0 | 0.00 | 0.00 | 0.00 | 99 | 1013.2 |
| 20260510070808 | 49 | 105 | 0.0 | 0.0 | 0.00 | 0.00 | 0.00 | 99 | 1013.0 |
| 20260510070305 | 49 | 106 | 0.0 | 0.0 | 0.00 | 0.00 | 0.00 | 99 | 1012.9 |
| 20260510065804 | 48 | 107 | 0.0 | 0.0 | 0.00 | 0.00 | 0.00 | 99 | 1012.9 |
| 20260510065305 | 48 | 119 | 0.0 | 0.0 | 0.00 | 0.00 | 0.00 | 99 | 1013.1 |
| 20260510064758 | 48 | 103 | 0.0 | 0.0 | 0.00 | 0.00 | 0.00 | 99 | 1013.0 |
| 20260510064256 | 48 | 101 | 0.0 | 0.0 | 0.00 | 0.00 | 0.00 | 99 | 1012.9 |
| 20260510063751 | 48 | 105 | 0.0 | 0.0 | 0.00 | 0.00 | 0.00 | 99 | 1013.1 |
| 20260510063248 | 48 | 92 | 0.0 | 0.0 | 0.00 | 0.00 | 0.00 | 99 | 1013.2 |
| 20260510062745 | 48 | 87 | 0.0 | 0.0 | 0.00 | 0.00 | 0.00 | 99 | 1012.6 |
| 20260510062241 | 48 | 96 | 0.0 | 0.0 | 0.00 | 0.00 | 0.00 | 99 | 1012.6 |
| 20260510061736 | 48 | 93 | 0.0 | 0.0 | 0.00 | 0.00 | 0.00 | 99 | 1012.6 |
| 20260510061234 | 48 | 135 | 0.0 | 0.0 | 0.00 | 0.00 | 0.00 | 99 | 1012.5 |
| 20260510060729 | 48 | 118 | 0.0 | 0.0 | 0.00 | 0.00 | 0.00 | 99 | 1012.7 |
| 20260510060227 | 48 | 120 | 0.0 | 0.0 | 0.00 | 0.00 | 0.00 | 99 | 1012.5 |
| 20260510055723 | 48 | 123 | 0.0 | 0.0 | 0.00 | 0.00 | 0.00 | 99 | 1012.7 |
| 20260510055221 | 48 | 111 | 0.0 | 0.0 | 0.00 | 0.00 | 0.00 | 99 | 1012.7 |
| 20260510054716 | 48 | 123 | 0.0 | 0.0 | 0.00 | 0.00 | 0.00 | 99 | 1012.8 |
| 20260510054212 | 48 | 150 | 0.0 | 0.0 | 0.00 | 0.00 | 0.00 | 99 | 1012.7 |
| 20260510053712 | 48 | 68 | 0.0 | 0.0 | 0.00 | 0.00 | 0.00 | 99 | 1013.0 |
| 20260510053208 | 48 | 124 | 0.0 | 0.0 | 0.00 | 0.00 | 0.00 | 99 | 1012.9 |
| 20260510052704 | 48 | 125 | 0.0 | 0.0 | 0.00 | 0.00 | 0.00 | 99 | 1012.7 |
| 20260510052200 | 48 | 144 | 0.0 | 0.0 | 0.00 | 0.00 | 0.00 | 99 | 1012.7 |
| 20260510051656 | 48 | 319 | 0.0 | 0.0 | 0.00 | 0.00 | 0.00 | 99 | 1012.8 |
| 20260510051153 | 49 | 299 | 0.0 | 0.0 | 0.00 | 0.00 | 0.00 | 99 | 1012.7 |
| 20260510050650 | 49 | 174 | 0.0 | 0.0 | 0.00 | 0.00 | 0.00 | 99 | 1012.6 |
| 20260510050147 | 49 | 118 | 0.0 | 0.0 | 0.00 | 0.00 | 0.00 | 99 | 1012.8 |
| 20260510045644 | 49 | 140 | 0.0 | 0.0 | 0.00 | 0.00 | 0.00 | 99 | 1012.7 |
| 20260510045141 | 49 | 141 | 0.0 | 0.0 | 0.00 | 0.00 | 0.00 | 99 | 1012.6 |
| 20260510044636 | 49 | 133 | 0.0 | 0.0 | 0.00 | 0.00 | 0.00 | 99 | 1012.4 |
| 20260510044134 | 49 | 145 | 0.0 | 0.0 | 0.00 | 0.00 | 0.00 | 99 | 1012.4 |
| 20260510043630 | 49 | 166 | 0.0 | 0.0 | 0.00 | 0.00 | 0.00 | 99 | 1012.1 |
| 20260510043126 | 49 | 171 | 0.0 | 0.0 | 0.00 | 0.00 | 0.00 | 99 | 1012.4 |
| 20260510042624 | 49 | 158 | 0.0 | 0.0 | 0.00 | 0.00 | 0.00 | 99 | 1012.1 |
| 20260510042120 | 49 | 165 | 0.0 | 0.0 | 0.00 | 0.00 | 0.00 | 99 | 1012.4 |
| 20260510041617 | 49 | 152 | 0.0 | 0.0 | 0.00 | 0.00 | 0.00 | 99 | 1012.3 |
| 20260510041114 | 49 | 137 | 0.0 | 0.0 | 0.00 | 0.00 | 0.00 | 99 | 1012.3 |
| 20260510040612 | 49 | 145 | 0.0 | 0.0 | 0.00 | 0.00 | 0.00 | 99 | 1012.4 |
| 20260510040108 | 49 | 165 | 0.0 | 0.0 | 0.00 | 0.00 | 0.00 | 99 | 1012.1 |
| 20260510035604 | 49 | 211 | 0.0 | 0.0 | 0.00 | 0.00 | 0.00 | 99 | 1012.3 |
| 20260510035104 | 49 | 211 | 0.0 | 0.0 | 0.00 | 0.00 | 0.00 | 99 | 1012.1 |
| 20260510034602 | 48 | 211 | 0.0 | 0.0 | 0.00 | 0.00 | 0.00 | 99 | 1012.1 |
| 20260510034059 | 48 | 211 | 0.0 | 0.0 | 0.00 | 0.00 | 0.00 | 99 | 1012.4 |
| 20260510033555 | 48 | 212 | 0.0 | 0.0 | 0.00 | 0.00 | 0.00 | 99 | 1011.9 |
| 20260510033053 | 49 | 214 | 0.0 | 0.0 | 0.00 | 0.00 | 0.00 | 99 | 1012.1 |
| 20260510032549 | 48 | 159 | 0.0 | 0.9 | 0.00 | 0.00 | 0.00 | 99 | 1012.0 |
| 20260510032044 | 48 | 137 | 0.0 | 0.9 | 0.00 | 0.00 | 0.00 | 99 | 1012.0 |
| 20260510031539 | 48 | 154 | 0.0 | 0.0 | 0.00 | 0.00 | 0.00 | 99 | 1012.1 |
| 20260510031035 | 48 | 156 | 0.0 | 0.0 | 0.00 | 0.00 | 0.00 | 99 | 1012.0 |
| 20260510030531 | 48 | 141 | 0.0 | 0.0 | 0.00 | 0.00 | 0.00 | 99 | 1012.1 |
| 20260510030029 | 48 | 133 | 0.0 | 0.0 | 0.00 | 0.00 | 0.00 | 99 | 1011.9 |
| 20260510025525 | 48 | 152 | 0.0 | 0.0 | 0.00 | 0.00 | 0.00 | 99 | 1012.3 |
| 20260510025023 | 48 | 153 | 0.0 | 0.0 | 0.00 | 0.00 | 0.00 | 99 | 1012.0 |
| 20260510024520 | 48 | 123 | 0.0 | 0.0 | 0.00 | 0.00 | 0.00 | 99 | 1012.0 |
| 20260510024015 | 48 | 159 | 0.0 | 0.0 | 0.00 | 0.00 | 0.00 | 99 | 1012.1 |
| 20260510023511 | 49 | 173 | 0.0 | 0.0 | 0.00 | 0.00 | 0.00 | 99 | 1012.1 |
| 20260510023009 | 49 | 59 | 0.0 | 0.0 | 0.00 | 0.00 | 0.00 | 99 | 1012.3 |
| 20260510022503 | 49 | 122 | 0.0 | 0.0 | 0.00 | 0.00 | 0.00 | 99 | 1012.1 |
| 20260510022002 | 49 | 178 | 0.0 | 0.0 | 0.00 | 0.00 | 0.00 | 99 | 1012.1 |
| 20260510021459 | 49 | 162 | 0.0 | 0.0 | 0.00 | 0.00 | 0.00 | 99 | 1012.3 |
| 20260510020956 | 49 | 140 | 0.0 | 0.0 | 0.00 | 0.00 | 0.00 | 99 | 1012.4 |
| 20260510020451 | 49 | 139 | 0.0 | 0.0 | 0.00 | 0.00 | 0.00 | 99 | 1012.0 |
| 20260510015946 | 49 | 153 | 0.0 | 0.0 | 0.00 | 0.00 | 0.00 | 99 | 1011.8 |
| 20260510015442 | 50 | 155 | 0.0 | 0.9 | 0.00 | 0.00 | 0.00 | 99 | 1012.1 |
| 20260510014938 | 50 | 156 | 0.0 | 0.0 | 0.00 | 0.00 | 0.00 | 99 | 1012.1 |
| 20260510014436 | 50 | 161 | 0.0 | 0.0 | 0.00 | 0.00 | 0.00 | 99 | 1012.0 |
| 20260510013932 | 50 | 143 | 0.0 | 0.0 | 0.00 | 0.00 | 0.00 | 99 | 1012.0 |
| 20260510013427 | 50 | 138 | 0.0 | 0.0 | 0.00 | 0.00 | 0.00 | 99 | 1012.1 |
| 20260510012923 | 49 | 160 | 0.0 | 0.0 | 0.00 | 0.00 | 0.00 | 99 | 1012.0 |
| 20260510012418 | 49 | 142 | 0.0 | 0.0 | 0.00 | 0.00 | 0.00 | 99 | 1011.9 |
| 20260510011913 | 49 | 140 | 0.0 | 0.0 | 0.00 | 0.00 | 0.00 | 99 | 1011.9 |
| 20260510011408 | 49 | 140 | 0.0 | 0.0 | 0.00 | 0.00 | 0.00 | 99 | 1011.8 |
| 20260510010904 | 49 | 135 | 0.0 | 0.0 | 0.00 | 0.00 | 0.00 | 99 | 1011.9 |
| 20260510010402 | 49 | 134 | 0.0 | 0.0 | 0.00 | 0.00 | 0.00 | 99 | 1011.7 |
| 20260510005858 | 49 | 172 | 0.0 | 0.0 | 0.00 | 0.00 | 0.00 | 99 | 1011.7 |
| 20260510005354 | 49 | 171 | 0.0 | 0.0 | 0.00 | 0.00 | 0.00 | 99 | 1011.5 |
| 20260510004852 | 49 | 151 | 0.0 | 0.0 | 0.00 | 0.00 | 0.00 | 99 | 1011.4 |
| 20260510004349 | 49 | 141 | 0.0 | 0.0 | 0.00 | 0.00 | 0.00 | 99 | 1011.7 |
| 20260510003847 | 49 | 127 | 0.0 | 0.0 | 0.00 | 0.00 | 0.00 | 99 | 1011.7 |
| 20260510003344 | 49 | 130 | 0.0 | 0.0 | 0.00 | 0.00 | 0.00 | 99 | 1011.7 |
| 20260510002842 | 49 | 130 | 0.0 | 0.0 | 0.00 | 0.00 | 0.00 | 99 | 1011.5 |
| 20260510002340 | 50 | 127 | 0.0 | 0.0 | 0.00 | 0.00 | 0.00 | 99 | 1011.6 |
| 20260510001836 | 50 | 131 | 0.0 | 0.0 | 0.00 | 0.00 | 0.00 | 99 | 1011.4 |
| 20260510001335 | 50 | 131 | 0.0 | 0.0 | 0.00 | 0.00 | 0.00 | 99 | 1011.3 |
| 20260510000831 | 50 | 138 | 0.0 | 0.0 | 0.00 | 0.00 | 0.00 | 99 | 1011.3 |
| 20260510000328 | 50 | 129 | 0.0 | 0.0 | 0.00 | 0.00 | 0.00 | 99 | 1011.4 |
| 20260509235825 | 50 | 138 | 0.0 | 0.0 | 0.00 | 0.00 | 0.00 | 98 | 1011.2 |
| 20260509235321 | 50 | 137 | 0.0 | 0.0 | 0.00 | 0.00 | 0.00 | 98 | 1011.2 |
| 20260509234817 | 51 | 140 | 0.0 | 0.0 | 0.00 | 0.00 | 0.00 | 98 | 1011.1 |
| 20260509234314 | 51 | 137 | 0.0 | 0.0 | 0.00 | 0.00 | 0.00 | 97 | 1011.0 |
| 20260509233812 | 51 | 139 | 0.0 | 0.9 | 0.00 | 0.00 | 0.00 | 97 | 1011.0 |
| 20260509233309 | 51 | 133 | 0.9 | 0.9 | 0.00 | 0.00 | 0.00 | 97 | 1011.0 |
| 20260509232805 | 51 | 118 | 0.0 | 0.0 | 0.00 | 0.00 | 0.00 | 97 | 1011.1 |
| 20260509232306 | 51 | 130 | 0.0 | 0.0 | 0.00 | 0.00 | 0.00 | 97 | 1011.0 |
| 20260509231759 | 51 | 129 | 0.0 | 0.0 | 0.00 | 0.00 | 0.00 | 96 | 1011.2 |
| 20260509231256 | 52 | 130 | 0.0 | 0.9 | 0.00 | 0.00 | 0.00 | 96 | 1011.0 |
| 20260509230754 | 52 | 143 | 0.0 | 0.9 | 0.00 | 0.00 | 0.00 | 95 | 1010.9 |
| 20260509230250 | 53 | 142 | 0.9 | 0.9 | 0.00 | 0.00 | 0.00 | 94 | 1011.0 |
| 20260509225745 | 53 | 141 | 0.9 | 0.9 | 0.00 | 0.00 | 0.00 | 93 | 1011.2 |
| 20260509225242 | 53 | 71 | 0.9 | 0.9 | 0.00 | 0.00 | 0.00 | 90 | 1011.2 |
| 20260509224738 | 53 | 146 | 0.9 | 0.9 | 0.00 | 0.00 | 0.00 | 89 | 1010.9 |
| 20260509224235 | 53 | 160 | 1.7 | 1.7 | 0.00 | 0.00 | 0.00 | 90 | 1011.0 |
| 20260509223732 | 54 | 136 | 0.9 | 0.9 | 0.00 | 0.00 | 0.00 | 91 | 1011.1 |
| 20260509223229 | 53 | 137 | 0.9 | 0.9 | 0.00 | 0.00 | 0.00 | 89 | 1010.9 |
| 20260509222726 | 53 | 91 | 0.9 | 0.9 | 0.00 | 0.00 | 0.00 | 90 | 1010.8 |
| 20260509222221 | 53 | 83 | 0.9 | 0.9 | 0.00 | 0.00 | 0.00 | 91 | 1010.9 |
| 20260509221717 | 53 | 159 | 0.9 | 0.9 | 0.00 | 0.00 | 0.00 | 91 | 1011.1 |
| 20260509221213 | 53 | 146 | 0.9 | 0.9 | 0.00 | 0.00 | 0.00 | 91 | 1011.0 |
| 20260509220709 | 53 | 133 | 0.9 | 0.9 | 0.00 | 0.00 | 0.00 | 90 | 1010.8 |
| 20260509220206 | 53 | 132 | 0.9 | 0.9 | 0.00 | 0.00 | 0.00 | 91 | 1010.9 |
| 20260509215701 | 53 | 34 | 0.9 | 1.7 | 0.00 | 0.00 | 0.00 | 90 | 1011.2 |
| 20260509215158 | 53 | 103 | 0.9 | 0.9 | 0.00 | 0.00 | 0.00 | 91 | 1011.1 |
| 20260509214655 | 53 | 189 | 2.6 | 4.3 | 0.00 | 0.00 | 0.00 | 91 | 1011.2 |
| 20260509214152 | 53 | 79 | 0.9 | 0.9 | 0.00 | 0.00 | 0.00 | 90 | 1011.1 |
| 20260509213649 | 53 | 220 | 2.6 | 2.6 | 0.00 | 0.00 | 0.00 | 90 | 1011.3 |
| 20260509213145 | 53 | 48 | 0.9 | 1.7 | 0.00 | 0.00 | 0.00 | 92 | 1011.1 |
| 20260509212642 | 53 | 25 | 1.7 | 1.7 | 0.00 | 0.00 | 0.00 | 92 | 1011.2 |
| 20260509212139 | 53 | 203 | 0.9 | 0.9 | 0.00 | 0.00 | 0.00 | 93 | 1011.3 |
| 20260509211635 | 53 | 318 | 1.7 | 1.7 | 0.00 | 0.00 | 0.00 | 95 | 1011.1 |
| 20260509211132 | 52 | 318 | 2.6 | 4.3 | 0.00 | 0.00 | 0.00 | 95 | 1011.4 |
| 20260509210629 | 52 | 157 | 1.7 | 1.7 | 0.00 | 0.00 | 0.00 | 97 | 1011.3 |
| 20260509210126 | 52 | 126 | 1.7 | 2.6 | 0.00 | 0.00 | 0.00 | 98 | 1011.3 |
| 20260509205620 | 52 | 170 | 1.7 | 1.7 | 0.00 | 0.00 | 0.00 | 99 | 1011.4 |
| 20260509205115 | 51 | 6 | 1.7 | 1.7 | 0.00 | 0.00 | 0.00 | 99 | 1011.3 |
| 20260509204612 | 51 | 164 | 0.9 | 0.9 | 0.00 | 0.00 | 0.00 | 99 | 1011.1 |
| 20260509204108 | 50 | 132 | 0.0 | 0.9 | 0.00 | 0.00 | 0.00 | 99 | 1011.1 |
| 20260509203604 | 50 | 135 | 0.0 | 0.0 | 0.00 | 0.00 | 0.00 | 99 | 1011.4 |
| 20260509203103 | 50 | 113 | 0.0 | 0.0 | 0.00 | 0.00 | 0.00 | 99 | 1011.3 |
| 20260509202603 | 49 | 127 | 0.0 | 0.0 | 0.00 | 0.00 | 0.00 | 99 | 1011.4 |
| 20260509202058 | 49 | 146 | 0.9 | 0.9 | 0.00 | 0.00 | 0.00 | 99 | 1011.3 |
| 20260509201553 | 50 | 105 | 0.0 | 0.9 | 0.00 | 0.00 | 0.00 | 99 | 1011.3 |
| 20260509201052 | 50 | 141 | 0.0 | 0.0 | 0.00 | 0.00 | 0.00 | 99 | 1011.4 |
| 20260509200551 | 50 | 68 | 0.9 | 0.9 | 0.00 | 0.00 | 0.00 | 99 | 1011.5 |
| 20260509200047 | 50 | 119 | 0.0 | 0.0 | 0.00 | 0.00 | 0.00 | 99 | 1011.4 |
| 20260509195543 | 50 | 139 | 0.0 | 0.9 | 0.00 | 0.00 | 0.00 | 99 | 1011.6 |
| 20260509195037 | 50 | 110 | 0.0 | 0.0 | 0.00 | 0.00 | 0.00 | 99 | 1011.6 |
| 20260509194532 | 49 | 46 | 0.0 | 0.0 | 0.00 | 0.00 | 0.00 | 99 | 1011.7 |
| 20260509194030 | 49 | 106 | 0.0 | 0.0 | 0.00 | 0.00 | 0.00 | 99 | 1011.9 |
| 20260509193530 | 49 | 121 | 0.0 | 0.0 | 0.00 | 0.00 | 0.00 | 99 | 1012.0 |
| 20260509193027 | 49 | 104 | 0.9 | 1.7 | 0.00 | 0.00 | 0.00 | 99 | 1012.0 |
| 20260509192524 | 49 | 130 | 0.0 | 0.9 | 0.00 | 0.00 | 0.00 | 99 | 1012.1 |
| 20260509192019 | 49 | 38 | 1.7 | 1.7 | 0.00 | 0.00 | 0.00 | 99 | 1012.3 |
| 20260509191514 | 49 | 30 | 0.0 | 0.0 | 0.00 | 0.00 | 0.00 | 99 | 1012.4 |
| 20260509191010 | 49 | 310 | 0.0 | 0.9 | 0.00 | 0.00 | 0.00 | 99 | 1012.6 |
| 20260509190507 | 49 | 140 | 0.0 | 0.9 | 0.00 | 0.00 | 0.00 | 99 | 1012.4 |
| 20260509190006 | 49 | 121 | 0.0 | 0.0 | 0.00 | 0.00 | 0.00 | 99 | 1012.5 |
| 20260509185502 | 49 | 173 | 0.0 | 0.9 | 0.00 | 0.00 | 0.00 | 99 | 1012.8 |
| 20260509184958 | 48 | 120 | 0.0 | 0.0 | 0.00 | 0.00 | 0.00 | 99 | 1012.5 |
| 20260509184457 | 48 | 74 | 0.9 | 0.9 | 0.00 | 0.00 | 0.00 | 99 | 1012.6 |
| 20260509183952 | 48 | 139 | 0.9 | 1.7 | 0.00 | 0.00 | 0.00 | 99 | 1012.6 |
| 20260509183447 | 48 | 31 | 0.9 | 1.7 | 0.00 | 0.00 | 0.00 | 99 | 1012.6 |
| 20260509182943 | 48 | 110 | 0.0 | 0.9 | 0.00 | 0.00 | 0.00 | 99 | 1012.7 |
| 20260509182440 | 48 | 213 | 1.7 | 1.7 | 0.00 | 0.00 | 0.00 | 99 | 1012.7 |
| 20260509181937 | 49 | 331 | 2.6 | 2.6 | 0.00 | 0.00 | 0.00 | 99 | 1012.7 |
| 20260509181435 | 48 | 183 | 0.0 | 0.0 | 0.00 | 0.00 | 0.00 | 99 | 1012.6 |
| 20260509180932 | 49 | 192 | 0.9 | 1.7 | 0.00 | 0.00 | 0.00 | 99 | 1012.6 |
| 20260509180428 | 49 | 337 | 0.0 | 0.0 | 0.00 | 0.00 | 0.00 | 99 | 1012.7 |
| 20260509175925 | 49 | 134 | 0.0 | 0.0 | 0.00 | 0.00 | 0.00 | 99 | 1012.8 |
| 20260509175421 | 49 | 140 | 0.0 | 0.0 | 0.00 | 0.00 | 0.00 | 99 | 1012.6 |
| 20260509174917 | 49 | 144 | 0.0 | 0.0 | 0.00 | 0.00 | 0.00 | 99 | 1012.8 |
| 20260509174414 | 49 | 116 | 0.0 | 0.0 | 0.00 | 0.00 | 0.00 | 99 | 1012.7 |
| 20260509173909 | 49 | 152 | 0.0 | 0.0 | 0.00 | 0.00 | 0.00 | 99 | 1012.8 |
| 20260509173403 | 49 | 147 | 0.9 | 0.9 | 0.00 | 0.00 | 0.00 | 99 | 1012.8 |
| 20260509172900 | 49 | 128 | 0.0 | 0.9 | 0.00 | 0.00 | 0.00 | 99 | 1013.0 |
| 20260509172357 | 49 | 184 | 1.7 | 1.7 | 0.00 | 0.00 | 0.00 | 99 | 1012.9 |
| 20260509171853 | 49 | 146 | 0.9 | 1.7 | 0.00 | 0.00 | 0.00 | 99 | 1013.0 |
| 20260509171349 | 49 | 128 | 0.9 | 0.9 | 0.00 | 0.00 | 0.00 | 99 | 1012.7 |
| 20260509170846 | 49 | 171 | 0.9 | 1.7 | 0.00 | 0.00 | 0.00 | 98 | 1012.8 |
| 20260509170341 | 50 | 144 | 0.9 | 0.9 | 0.00 | 0.00 | 0.00 | 98 | 1012.6 |
| 20260509165836 | 50 | 158 | 0.9 | 0.9 | 0.00 | 0.00 | 0.00 | 98 | 1012.9 |
| 20260509165331 | 50 | 148 | 0.9 | 0.9 | 0.00 | 0.00 | 0.00 | 97 | 1013.1 |
| 20260509164827 | 50 | 163 | 2.6 | 2.6 | 0.00 | 0.00 | 0.00 | 97 | 1012.9 |
| 20260509164324 | 50 | 92 | 0.9 | 1.7 | 0.00 | 0.00 | 0.00 | 96 | 1012.9 |
| 20260509163820 | 50 | 158 | 1.7 | 1.7 | 0.00 | 0.00 | 0.00 | 96 | 1013.1 |
| 20260509163317 | 50 | 182 | 0.9 | 1.7 | 0.00 | 0.00 | 0.00 | 96 | 1013.2 |
| 20260509162816 | 50 | 167 | 1.7 | 1.7 | 0.00 | 0.00 | 0.00 | 96 | 1012.8 |
| 20260509162314 | 50 | 313 | 1.7 | 2.6 | 0.00 | 0.00 | 0.00 | 95 | 1012.8 |
| 20260509161811 | 50 | 169 | 1.7 | 1.7 | 0.00 | 0.00 | 0.00 | 96 | 1012.9 |
| 20260509161307 | 50 | 167 | 2.6 | 2.6 | 0.00 | 0.00 | 0.00 | 97 | 1012.8 |
| 20260509160802 | 50 | 147 | 1.7 | 1.7 | 0.00 | 0.00 | 0.00 | 97 | 1012.8 |
| 20260509160259 | 50 | 152 | 0.9 | 0.9 | 0.00 | 0.00 | 0.00 | 97 | 1013.0 |
| 20260509155754 | 49 | 205 | 0.9 | 1.7 | 0.00 | 0.00 | 0.00 | 97 | 1013.3 |
| 20260509155251 | 49 | 232 | 0.9 | 1.7 | 0.00 | 0.00 | 0.00 | 97 | 1013.3 |
| 20260509154747 | 50 | 163 | 0.9 | 0.9 | 0.00 | 0.00 | 0.00 | 97 | 1013.3 |
| 20260509154244 | 50 | 134 | 0.0 | 0.9 | 0.00 | 0.00 | 0.00 | 97 | 1013.4 |
| 20260509153741 | 49 | 121 | 0.9 | 0.9 | 0.00 | 0.00 | 0.00 | 97 | 1013.4 |
| 20260509153237 | 49 | 153 | 0.9 | 0.9 | 0.00 | 0.00 | 0.00 | 98 | 1013.0 |
| 20260509152734 | 48 | 133 | 0.0 | 0.9 | 0.00 | 0.00 | 0.00 | 98 | 1013.1 |
| 20260509152230 | 48 | 134 | 0.0 | 0.9 | 0.00 | 0.00 | 0.00 | 98 | 1012.9 |
| 20260509151727 | 48 | 140 | 0.9 | 0.9 | 0.00 | 0.00 | 0.00 | 98 | 1012.8 |
| 20260509151224 | 48 | 138 | 0.9 | 0.9 | 0.00 | 0.00 | 0.00 | 98 | 1012.9 |
| 20260509150722 | 49 | 152 | 0.9 | 1.7 | 0.00 | 0.00 | 0.00 | 98 | 1013.0 |
| 20260509150220 | 49 | 135 | 0.9 | 0.9 | 0.00 | 0.00 | 0.00 | 98 | 1013.1 |
| 20260509145717 | 49 | 133 | 0.0 | 0.0 | 0.00 | 0.00 | 0.00 | 98 | 1013.0 |
| 20260509145211 | 49 | 132 | 0.9 | 0.9 | 0.00 | 0.00 | 0.00 | 98 | 1013.3 |
| 20260509144708 | 49 | 129 | 0.0 | 0.0 | 0.00 | 0.00 | 0.00 | 98 | 1013.3 |
| 20260509144205 | 48 | 146 | 0.9 | 0.9 | 0.00 | 0.00 | 0.00 | 98 | 1013.2 |
| 20260509143702 | 48 | 139 | 0.9 | 0.9 | 0.00 | 0.00 | 0.00 | 98 | 1013.2 |
| 20260509143200 | 48 | 139 | 0.9 | 0.9 | 0.00 | 0.00 | 0.00 | 97 | 1013.3 |
| 20260509142655 | 48 | 136 | 0.9 | 0.9 | 0.00 | 0.00 | 0.00 | 97 | 1013.4 |
| 20260509142152 | 48 | 150 | 0.9 | 0.9 | 0.00 | 0.00 | 0.00 | 97 | 1013.3 |
| 20260509141648 | 48 | 134 | 0.0 | 0.9 | 0.00 | 0.00 | 0.00 | 97 | 1013.2 |
| 20260509141144 | 48 | 239 | 0.9 | 0.9 | 0.00 | 0.00 | 0.00 | 96 | 1013.1 |
| 20260509140641 | 48 | 129 | 0.0 | 0.0 | 0.00 | 0.00 | 0.00 | 96 | 1012.9 |
| 20260509140139 | 48 | 59 | 0.9 | 1.7 | 0.00 | 0.00 | 0.00 | 96 | 1013.2 |
| 20260509135636 | 48 | 141 | 0.0 | 0.9 | 0.00 | 0.00 | 0.00 | 95 | 1012.9 |
| 20260509135134 | 48 | 145 | 0.0 | 0.0 | 0.00 | 0.00 | 0.00 | 95 | 1012.7 |
| 20260509134630 | 48 | 153 | 0.0 | 0.0 | 0.00 | 0.00 | 0.00 | 94 | 1012.7 |
| 20260509134128 | 48 | 136 | 0.0 | 0.0 | 0.00 | 0.00 | 0.00 | 94 | 1012.7 |
| 20260509133625 | 48 | 129 | 0.0 | 0.0 | 0.00 | 0.00 | 0.00 | 92 | 1012.9 |
| 20260509133122 | 48 | 140 | 0.9 | 0.9 | 0.00 | 0.00 | 0.00 | 92 | 1013.0 |
| 20260509132620 | 48 | 142 | 0.9 | 0.9 | 0.00 | 0.00 | 0.00 | 91 | 1013.0 |
| 20260509132119 | 48 | 154 | 0.9 | 1.7 | 0.00 | 0.00 | 0.00 | 91 | 1012.8 |
| 20260509131614 | 48 | 152 | 0.9 | 1.7 | 0.00 | 0.00 | 0.00 | 90 | 1013.0 |
| 20260509131112 | 48 | 140 | 0.9 | 0.9 | 0.00 | 0.00 | 0.00 | 90 | 1012.8 |
| 20260509130607 | 48 | 112 | 1.7 | 1.7 | 0.00 | 0.00 | 0.00 | 89 | 1013.0 |
| 20260509130104 | 48 | 139 | 0.9 | 0.9 | 0.00 | 0.00 | 0.00 | 89 | 1012.8 |
| 20260509125600 | 48 | 146 | 0.9 | 0.9 | 0.00 | 0.00 | 0.00 | 88 | 1013.2 |
| 20260509125057 | 48 | 141 | 0.9 | 0.9 | 0.00 | 0.00 | 0.00 | 87 | 1013.2 |
| 20260509124553 | 48 | 239 | 0.9 | 0.9 | 0.00 | 0.00 | 0.00 | 88 | 1013.2 |
| 20260509124051 | 48 | 146 | 1.7 | 1.7 | 0.00 | 0.00 | 0.00 | 89 | 1013.2 |
| 20260509123549 | 48 | 144 | 0.9 | 0.9 | 0.00 | 0.00 | 0.00 | 89 | 1013.3 |
| 20260509123045 | 48 | 142 | 0.9 | 0.9 | 0.00 | 0.00 | 0.00 | 89 | 1013.4 |
| 20260509122541 | 48 | 132 | 0.9 | 0.9 | 0.00 | 0.00 | 0.00 | 89 | 1013.3 |
| 20260509122038 | 48 | 144 | 0.9 | 1.7 | 0.00 | 0.00 | 0.00 | 89 | 1013.2 |
| 20260509121535 | 48 | 130 | 0.0 | 0.9 | 0.00 | 0.00 | 0.00 | 88 | 1013.2 |
| 20260509121033 | 47 | 119 | 0.0 | 0.0 | 0.00 | 0.00 | 0.00 | 87 | 1013.2 |
| 20260509120531 | 48 | 138 | 0.9 | 0.9 | 0.00 | 0.00 | 0.00 | 88 | 1013.6 |
| 20260509120029 | 47 | 129 | 0.9 | 0.9 | 0.00 | 0.00 | 0.00 | 88 | 1013.3 |
| 20260509115525 | 47 | 133 | 0.0 | 0.9 | 0.00 | 0.00 | 0.00 | 89 | 1013.2 |
| 20260509115023 | 47 | 140 | 0.9 | 0.9 | 0.00 | 0.00 | 0.00 | 90 | 1012.9 |
| 20260509114521 | 47 | 128 | 0.0 | 0.0 | 0.00 | 0.00 | 0.00 | 91 | 1012.9 |
| 20260509114020 | 47 | 123 | 0.9 | 0.9 | 0.00 | 0.00 | 0.00 | 93 | 1013.1 |
| 20260509113518 | 47 | 106 | 0.0 | 0.0 | 0.00 | 0.00 | 0.00 | 92 | 1013.0 |
| 20260509113015 | 47 | 105 | 0.9 | 0.9 | 0.00 | 0.00 | 0.00 | 92 | 1013.0 |
| 20260509112511 | 47 | 106 | 0.0 | 0.0 | 0.00 | 0.00 | 0.00 | 93 | 1012.9 |
| 20260509112008 | 47 | 105 | 0.0 | 0.0 | 0.00 | 0.00 | 0.00 | 94 | 1013.0 |
| 20260509111506 | 47 | 129 | 0.0 | 0.9 | 0.00 | 0.00 | 0.00 | 94 | 1012.9 |
| 20260509111003 | 46 | 139 | 0.9 | 0.9 | 0.00 | 0.00 | 0.00 | 93 | 1013.0 |
| 20260509110459 | 46 | 103 | 0.9 | 0.9 | 0.00 | 0.00 | 0.00 | 93 | 1012.9 |
| 20260509105956 | 46 | 101 | 0.0 | 0.0 | 0.00 | 0.00 | 0.00 | 93 | 1012.9 |
| 20260509105455 | 46 | 112 | 0.0 | 0.0 | 0.00 | 0.00 | 0.00 | 93 | 1012.8 |
| 20260509104952 | 46 | 113 | 0.0 | 0.0 | 0.00 | 0.00 | 0.00 | 93 | 1013.0 |
| 20260509104448 | 46 | 131 | 0.9 | 0.9 | 0.00 | 0.00 | 0.00 | 93 | 1012.8 |
| 20260509103946 | 46 | 110 | 0.0 | 0.0 | 0.00 | 0.00 | 0.00 | 94 | 1012.8 |
| 20260509103443 | 46 | 111 | 0.0 | 0.0 | 0.00 | 0.00 | 0.00 | 94 | 1012.9 |
| 20260509102941 | 46 | 111 | 0.0 | 0.0 | 0.00 | 0.00 | 0.00 | 94 | 1012.8 |
| 20260509102438 | 46 | 111 | 0.0 | 0.9 | 0.00 | 0.00 | 0.00 | 93 | 1012.8 |
| 20260509101934 | 46 | 110 | 0.0 | 0.0 | 0.00 | 0.00 | 0.00 | 92 | 1013.2 |
| 20260509101431 | 46 | 110 | 0.0 | 0.0 | 0.00 | 0.00 | 0.00 | 92 | 1013.1 |
| 20260509100928 | 46 | 110 | 0.0 | 0.0 | 0.00 | 0.00 | 0.00 | 91 | 1012.9 |
| 20260509100425 | 46 | 112 | 0.0 | 0.0 | 0.00 | 0.00 | 0.00 | 90 | 1013.1 |
| 20260509095922 | 46 | 112 | 0.0 | 0.0 | 0.00 | 0.00 | 0.00 | 90 | 1012.9 |
| 20260509095419 | 46 | 112 | 0.0 | 0.0 | 0.00 | 0.00 | 0.00 | 89 | 1013.3 |
| 20260509094916 | 46 | 112 | 0.0 | 0.0 | 0.00 | 0.00 | 0.00 | 89 | 1013.0 |
| 20260509094413 | 47 | 112 | 0.0 | 0.0 | 0.00 | 0.00 | 0.00 | 88 | 1013.1 |
| 20260509093911 | 46 | 111 | 0.0 | 0.0 | 0.00 | 0.00 | 0.00 | 88 | 1012.9 |
| 20260509093408 | 46 | 111 | 0.0 | 0.0 | 0.00 | 0.00 | 0.00 | 88 | 1013.0 |
| 20260509092906 | 46 | 110 | 0.0 | 0.0 | 0.00 | 0.00 | 0.00 | 89 | 1013.0 |
| 20260509092403 | 46 | 131 | 0.0 | 0.0 | 0.00 | 0.00 | 0.00 | 89 | 1013.1 |
| 20260509091902 | 46 | 94 | 0.0 | 0.0 | 0.00 | 0.00 | 0.00 | 88 | 1013.1 |
| 20260509091358 | 46 | 94 | 0.0 | 0.0 | 0.00 | 0.00 | 0.00 | 88 | 1013.1 |
| 20260509090855 | 46 | 93 | 0.0 | 0.0 | 0.00 | 0.00 | 0.00 | 87 | 1013.1 |
| 20260509090352 | 46 | 92 | 0.0 | 0.0 | 0.00 | 0.00 | 0.00 | 87 | 1013.2 |
| 20260509085850 | 47 | 84 | 0.9 | 0.9 | 0.00 | 0.00 | 0.00 | 85 | 1013.2 |
| 20260509085347 | 47 | 92 | 0.0 | 0.0 | 0.00 | 0.00 | 0.00 | 84 | 1013.2 |
| 20260509084843 | 47 | 92 | 0.0 | 0.0 | 0.00 | 0.00 | 0.00 | 85 | 1013.4 |
| 20260509084340 | 47 | 92 | 0.0 | 0.0 | 0.00 | 0.00 | 0.00 | 85 | 1013.4 |
| 20260509083838 | 48 | 120 | 0.0 | 0.0 | 0.00 | 0.00 | 0.00 | 84 | 1013.4 |
| 20260509083334 | 48 | 120 | 0.0 | 0.0 | 0.00 | 0.00 | 0.00 | 84 | 1013.4 |
| 20260509082831 | 48 | 121 | 0.0 | 0.0 | 0.00 | 0.00 | 0.00 | 84 | 1013.5 |
| 20260509082328 | 47 | 121 | 0.0 | 0.0 | 0.00 | 0.00 | 0.00 | 84 | 1013.4 |
| 20260509081826 | 47 | 101 | 0.0 | 0.0 | 0.00 | 0.00 | 0.00 | 85 | 1013.5 |
| 20260509081322 | 47 | 101 | 0.0 | 0.0 | 0.00 | 0.00 | 0.00 | 85 | 1013.5 |
| 20260509080820 | 47 | 100 | 0.0 | 0.0 | 0.00 | 0.00 | 0.00 | 86 | 1013.7 |
| 20260509080318 | 47 | 100 | 0.0 | 0.0 | 0.00 | 0.00 | 0.00 | 85 | 1013.5 |
| 20260509075816 | 47 | 100 | 0.0 | 0.9 | 0.00 | 0.00 | 0.00 | 85 | 1013.7 |
| 20260509075313 | 48 | 101 | 0.0 | 0.0 | 0.00 | 0.00 | 0.00 | 85 | 1013.7 |
| 20260509074810 | 48 | 100 | 0.0 | 0.9 | 0.00 | 0.00 | 0.00 | 84 | 1013.6 |
| 20260509074308 | 48 | 119 | 0.0 | 0.0 | 0.00 | 0.00 | 0.00 | 85 | 1013.7 |
| 20260509073804 | 48 | 117 | 0.0 | 0.9 | 0.00 | 0.00 | 0.00 | 85 | 1013.4 |
| 20260509073300 | 47 | 131 | 0.0 | 0.0 | 0.00 | 0.00 | 0.00 | 86 | 1013.5 |
| 20260509072757 | 47 | 132 | 0.0 | 0.0 | 0.00 | 0.00 | 0.00 | 87 | 1013.5 |
| 20260509072253 | 47 | 133 | 0.0 | 0.9 | 0.00 | 0.00 | 0.00 | 88 | 1013.7 |